Stations météo

réclame
Mon MeteoGroup
Umeå Flygplats, Suède (2286): Température de l'air & dewpoint: 16.06.2018 09:00:00 - 22.06.2018 09:00:00 (CEST)Umeå Flygplats, Suède (2286): Vitesse du vent: 16.06.2018 09:00:00 - 22.06.2018 09:00:00 (CEST)Umeå Flygplats, Suède (2286): Direction du vent: 16.06.2018 09:00:00 - 22.06.2018 09:00:00 (CEST)Umeå Flygplats, Suède (2286): reduced air pressure: 16.06.2018 09:00:00 - 22.06.2018 09:00:00 (CEST)Umeå Flygplats, Suède (2286): visibility: 16.06.2018 09:00:00 - 22.06.2018 09:00:00 (CEST)
Date & Time tt [°C] td [°C] ff [km/h] ff [knt] dd ppp [hPa] vv [km]
22.06.2018 09:00:00 11,5 6,6 24 13 N 992,9 10
22.06.2018 08:00:00 10,5 7,4 28 15 N 993,9 10
22.06.2018 07:00:00 10,6 7,5 24 13 N 995,3 10
22.06.2018 06:00:00 11,5 6,4 22 12 N 996,4 10
22.06.2018 05:00:00 11,7 6,2 18 10 N 996,9 10
22.06.2018 04:00:00 12,1 5,5 18 10 N 997,6 10
22.06.2018 03:00:00 12,5 4,7 13 7 N 998,5 10
22.06.2018 02:00:00 12,5 4,9 9 5 NNE 998,8 10
22.06.2018 01:00:00 13,0 4,9 9 5 NNE 999,4 10
22.06.2018 00:00:00 14,1 4,9 9 5 N 1000,2 10
21.06.2018 23:00:00 14,5 4,8 8 4 N 1000,7 10
21.06.2018 22:00:00 14,9 4,9 8 4 N 1001,1 10
21.06.2018 21:00:00 15,1 3,6 5 3 - 1001,2 10
21.06.2018 20:00:00 15,0 2,8 5 3 - 1001,8 10
21.06.2018 19:00:00 15,5 4,5 8 4 SSE 1001,9 10
21.06.2018 18:00:00 15,2 6,5 16 9 SSE 1002,1 10
21.06.2018 17:00:00 16,6 6,4 13 7 S 1001,9 10
21.06.2018 16:00:00 17,1 6,3 11 6 SSE 1002,3 10
21.06.2018 15:00:00 16,3 6,4 15 8 S 1002,7 10
21.06.2018 14:00:00 15,8 6,8 18 10 S 1002,7 10
21.06.2018 13:00:00 15,3 6,3 18 10 SSW 1002,8 10
21.06.2018 12:00:00 15,2 5,4 18 10 SSW 1003,1 10
21.06.2018 11:00:00 16,3 4,7 5 3 NNW 1003,1 10
21.06.2018 10:00:00 15,3 5,8 5 3 - 1003,3 10
21.06.2018 09:00:00 14,2 4,8 8 4 WNW 1003,6 10
21.06.2018 08:00:00 13,0 5,7 8 4 NNW 1003,7 10
21.06.2018 07:00:00 12,3 5,2 13 7 NW 1003,9 10
21.06.2018 06:00:00 10,9 5,2 11 6 WNW 1003,7 10
21.06.2018 05:00:00 9,9 4,9 9 5 W 1003,4 10
21.06.2018 04:00:00 8,5 4,1 9 5 W 1003,5 10
21.06.2018 03:00:00 7,9 3,9 11 6 WSW 1003,5 10
21.06.2018 02:00:00 9,3 3,7 13 7 W 1003,4 10
21.06.2018 01:00:00 8,8 3,6 9 5 WSW 1003,5 10
21.06.2018 00:00:00 10,1 3,4 8 4 W 1003,5 10
20.06.2018 23:00:00 11,7 3,5 9 5 W 1003,1 10
20.06.2018 22:00:00 13,5 3,6 13 7 W 1003,2 10
20.06.2018 21:00:00 15,1 3,3 22 12 W 1002,9 10
20.06.2018 20:00:00 16,5 2,1 21 11 W 1002,8 10
20.06.2018 19:00:00 17,0 2,6 24 13 WNW 1002,8 10
20.06.2018 18:00:00 16,9 2,9 21 11 W 1002,7 10
20.06.2018 17:00:00 16,4 4,1 26 14 W 1002,6 10
20.06.2018 16:00:00 18,0 1,5 26 14 WSW 1002,4 10
20.06.2018 15:00:00 17,3 2,5 26 14 W 1002,2 10
20.06.2018 14:00:00 19,1 4,1 34 18 W 1002,3 10
20.06.2018 13:00:00 17,8 3,7 28 15 W 1002,3 10
20.06.2018 12:00:00 17,1 3,7 24 13 W 1002,1 10
20.06.2018 11:00:00 16,0 3,7 31 17 W 1002,1 10
20.06.2018 10:00:00 16,0 4,4 24 13 W 1001,6 10
20.06.2018 09:00:00 15,5 4,5 31 17 W 1001,0 10
20.06.2018 08:00:00 14,2 4,2 22 12 W 1000,7 10
20.06.2018 07:00:00 13,3 4,4 22 12 W 1000,4 10
20.06.2018 06:00:00 12,2 4,2 16 9 WSW 1000,1 10
20.06.2018 05:00:00 11,2 4,4 13 7 WSW 999,8 10
20.06.2018 04:00:00 10,4 4,1 11 6 WSW 999,5 10
20.06.2018 03:00:00 9,8 4,0 13 7 W 999,3 10
20.06.2018 02:00:00 10,5 4,2 15 8 W 998,7 10
20.06.2018 01:00:00 11,8 4,0 18 10 W 998,4 10
20.06.2018 00:00:00 12,6 4,1 18 10 W 997,8 10
19.06.2018 23:00:00 12,5 4,9 16 9 W 997,1 10
19.06.2018 22:00:00 14,1 5,7 16 9 W 996,3 10
19.06.2018 21:00:00 15,6 5,2 16 9 W 995,4 10
19.06.2018 20:00:00 15,6 6,1 22 12 WNW 994,9 10
19.06.2018 19:00:00 16,7 5,3 18 10 W 994,5 10
19.06.2018 18:00:00 16,2 4,6 22 12 W 994,2 45
19.06.2018 17:00:00 16,5 5,7 26 14 WNW 993,5 10
19.06.2018 16:00:00 14,2 6,8 29 16 WNW 993,3 10
19.06.2018 15:00:00 13,6 7,8 31 17 W 992,4 10
19.06.2018 14:00:00 13,3 9,5 22 12 W 991,2 10
19.06.2018 13:00:00 13,3 12,7 18 10 SSW 990,4 10
19.06.2018 12:00:00 11,7 10,9 22 12 S 990,9 10
19.06.2018 11:00:00 13,1 11,7 22 12 S 991,9 10
19.06.2018 10:00:00 12,8 11,9 16 9 S 992,9 10
19.06.2018 09:00:00 12,5 11,7 13 7 S 993,9 10
19.06.2018 08:00:00 12,3 11,5 16 9 S 995,0 8
19.06.2018 07:00:00 12,9 11,3 16 9 S 996,3 10
19.06.2018 06:00:00 12,7 11,3 18 10 S 997,5 10
19.06.2018 05:00:00 12,5 11,1 14 8 S 998,1 50
19.06.2018 04:00:00 12,2 10,9 11 6 S 999,0 40
19.06.2018 03:00:00 11,6 10,5 7 4 SSE 999,8 40
19.06.2018 02:00:00 11,4 10,3 11 6 SSE 1000,9 30
19.06.2018 01:00:00 11,1 10,2 9 5 S 1001,7 10
19.06.2018 00:00:00 11,4 10,5 13 7 SSE 1002,5 10
18.06.2018 23:00:00 11,6 10,7 13 7 SSE 1003,4 10
18.06.2018 22:00:00 12,2 10,9 15 8 SSE 1003,8 10
18.06.2018 21:00:00 13,0 11,1 15 8 SSW 1004,1 10
18.06.2018 20:00:00 14,5 11,3 21 11 SSW 1004,4 10
18.06.2018 19:00:00 14,8 10,4 26 14 SSW 1004,4 10
18.06.2018 18:00:00 15,7 11,5 21 11 S 1004,4 10
18.06.2018 17:00:00 15,6 11,4 24 13 S 1004,5 10
18.06.2018 16:00:00 14,3 11,5 18 10 S 1004,7 30
18.06.2018 15:00:00 14,7 11,7 26 14 S 1004,6 10
18.06.2018 14:00:00 15,4 12,7 22 12 SSW 1004,2 10
18.06.2018 13:00:00 15,0 12,9 22 12 S 1003,8 10
18.06.2018 12:00:00 13,0 12,4 18 10 S 1003,7 10
18.06.2018 11:00:00 12,0 11,5 24 13 SSW 1003,6 8
18.06.2018 10:00:00 12,5 12,0 18 10 SSW 1003,3 10
18.06.2018 09:00:00 12,2 11,7 18 10 S 1003,2 10
18.06.2018 08:00:00 11,1 10,3 18 10 SE 1003,1 10
18.06.2018 07:00:00 12,7 12,2 11 6 ESE 1004,1 10
18.06.2018 06:00:00 12,6 12,1 11 6 SSE 1005,3 10
18.06.2018 05:00:00 12,1 11,8 9 5 ESE 1006,1 10
18.06.2018 04:00:00 11,8 11,3 0 0 N 1007,3 10
18.06.2018 03:00:00 11,8 10,7 5 3 - 1007,8 10
18.06.2018 02:00:00 12,1 10,2 4 2 - 1008,6 10
18.06.2018 01:00:00 13,9 6,0 4 2 NE 1008,9 10
18.06.2018 00:00:00 14,8 4,2 9 5 NE 1009,9 10
17.06.2018 23:00:00 14,7 4,9 5 3 N 1011,3 10
17.06.2018 22:00:00 15,1 5,3 8 4 NE 1012,2 10
17.06.2018 21:00:00 15,6 6,6 15 8 ENE 1013,1 10
17.06.2018 20:00:00 16,2 7,1 8 4 ENE 1013,8 10
17.06.2018 19:00:00 17,3 6,8 15 8 E 1014,5 10
17.06.2018 18:00:00 18,5 7,0 13 7 E 1015,0 10
17.06.2018 17:00:00 19,4 7,5 11 6 SSE 1015,5 10
17.06.2018 16:00:00 20,3 7,0 13 7 SSE 1016,1 10
17.06.2018 15:00:00 19,3 6,7 11 6 S 1016,4 10
17.06.2018 14:00:00 20,0 6,7 15 8 S 1017,0 10
17.06.2018 13:00:00 19,9 7,6 15 8 S 1017,3 10
17.06.2018 12:00:00 18,9 7,6 13 7 SE 1017,7 10
17.06.2018 11:00:00 18,8 8,2 15 8 SE 1018,0 10
17.06.2018 10:00:00 17,9 7,9 13 7 ESE 1018,2 10
17.06.2018 09:00:00 17,3 6,8 13 7 E 1018,2 10
17.06.2018 08:00:00 17,4 8,0 8 4 ENE 1018,1 10
17.06.2018 07:00:00 15,5 8,0 0 0 N 1018,1 10
17.06.2018 06:00:00 12,5 9,1 5 3 NNW 1018,2 10
17.06.2018 05:00:00 11,0 8,6 8 4 NW 1018,1 10
17.06.2018 04:00:00 8,2 7,4 5 3 NW 1017,9 10
17.06.2018 03:00:00 4,6 3,9 0 0 N 1017,5 0,6
17.06.2018 02:00:00 5,8 5,5 4 2 NNW 1017,2 0,1
17.06.2018 01:00:00 6,0 5,6 0 0 N 1017,1 0,1
17.06.2018 00:00:00 7,3 6,7 0 0 N 1016,8 10
16.06.2018 23:00:00 10,1 9,0 5 3 SSE 1016,7 10
16.06.2018 22:00:00 12,0 10,1 5 3 - 1016,4 10
16.06.2018 21:00:00 12,6 10,1 5 3 SSE 1015,7 10
16.06.2018 20:00:00 13,3 10,3 11 6 S 1015,4 10
16.06.2018 19:00:00 14,7 10,3 13 7 S 1014,8 10
16.06.2018 18:00:00 15,4 10,8 21 11 S 1014,6 10
16.06.2018 17:00:00 16,7 10,1 15 8 S 1014,4 10
16.06.2018 16:00:00 15,6 10,1 21 11 SSE 1014,3 10
16.06.2018 15:00:00 17,0 8,7 21 11 SSW 1014,2 10
16.06.2018 14:00:00 16,6 10,2 24 13 S 1014,0 10
16.06.2018 13:00:00 17,6 9,0 22 12 S 1013,5 10
16.06.2018 12:00:00 18,9 8,2 18 10 S 1013,2 10
16.06.2018 11:00:00 17,3 8,7 18 10 SSE 1013,1 10
16.06.2018 10:00:00 18,0 7,4 15 8 SSE 1012,9 10
16.06.2018 09:00:00 17,4 8,8 9 5 SSW 1012,3 10

tt = Température de l'air
td = dewpoint
ff = Vitesse du vent
dd = Direction du vent
ppp = reduced air pressure
vv = visibility

stations d'obs. à proximité